sat.trackr.live / text

‹ back to catalog

STRELA 3

NORAD 37153 · 2010-043B

PAYLOAD ACTIVE UNKNOWN

§ Identity

Operator
Country
CIS
Launch date
2010-09-08
Launch site
PLMSC
Launch vehicle
Mass (kg)
RCS (m²)
0.91

External: N2YO · Heavens-Above · Gunter

§ Orbital elements

Epoch: 2026-09-20T03:12:44.981280Z

Period
116.05 min
Inclination
82.4621°
Eccentricity
0.0006954
Mean motion
12.40794358 rev/d
Perigee alt
1,497.8 km
Apogee alt
1,508.7 km
Semi-major
7,881.4 km
B*
5.2139e-4
RAAN
19.2576°
Arg perigee
231.9615°
Mean anomaly
128.0836°
Rev number
72,614

§ Raw data

STRELA 31 37153U 10043B   26263.13385395  .00000080  00000+0  52139-3 0  99932 37153  82.4621  19.2576 0006954 231.9615 128.0836 12.40794358726146

JSON: /api/v1/satellites/37153 · /tle

For live sub-satellite position, see the globe view (requires WebGL).

§ Visibility from observer

Set your observer location to see the next 7 days of passes ≥ 10°. The values pass through the URL so the page stays shareable.

No JS? Fill the form by hand. The geolocation button needs JavaScript.